Location: *
(41.0833°N, 73.4167°W)
Time: 07:45:28
(UTC+00:00)

Cosmos 2278 Rocket - Pass Details

Date: 22 October 2019
Orbit: 840 x 847 km, 71.0° (Epoch: 11 November)

Event Time Altitude Azimuth Distance (km) Brightness Sun altitude
Exits shadow 08:46:09 34° 170° (S) 1,350 3.2 -28.2°
Drops below altitude 10° 08:49:16 10° 164° (SSE) 2,456 4.7 -27.6°
Sets 08:51:42 0° 163° (SSE) 3,385 5.4 -27.2°
